Tracking 29892 objects as of 21-Nov-2024
HD Live streaming from Space Station
objects crossing your sky now

JILIN-01 KUANFU 02A

Track JILIN-01 KUANFU 02A now!
10-day predictions


NORAD ID: 57696
Int'l Code: 2023-127A
Perigee: 508.7 km
Apogee: 515.4 km
Inclination: 97.6 °
Period: 94.7 minutes
Semi major axis: 6883 km
RCS: Unknown
Launch date: August 25, 2023
Source: People's Republic of China (PRC)
Launch site: Jiuquan Satellite Launch Center, China (JSC)
Your satellite tracking list
Your tracking list is empty




NASA's NSSDC Master Catalog

Two Line Element Set (TLE):
1 57696U 23127A   24326.19631474  .00018352  00000-0  84577-3 0  9993
2 57696  97.5721  54.7943 0004895 190.5040 169.6094 15.20318051 68705
Source of the keplerian elements: AFSPC